| time (UTC) | temp F | wind direction | speed MPH | gust MPH | rain 1hr in | rain 24hr in | rain mn in | humidity % | barometer mb |
| 20260510200530 | 51 | 5 | 9.0 | 15.0 | 0.00 | 0.00 | 0.00 | 86 | |
| 20260510195535 | 51 | 13 | 9.0 | 19.0 | 0.00 | 0.00 | 0.00 | 86 | |
| 20260510194544 | 51 | 23 | 13.0 | 20.0 | 0.00 | 0.00 | 0.00 | 86 | |
| 20260510193526 | 51 | 12 | 9.0 | 20.0 | 0.00 | 0.00 | 0.00 | 85 | |
| 20260510192518 | 51 | 19 | 12.0 | 19.0 | 0.00 | 0.00 | 0.00 | 85 | |
| 20260510191521 | 52 | 53 | 14.0 | 24.0 | 0.00 | 0.00 | 0.00 | 84 | |
| 20260510190535 | 52 | 5 | 15.0 | 26.0 | 0.00 | 0.00 | 0.00 | 83 | |
| 20260510185519 | 52 | 47 | 11.0 | 20.0 | 0.00 | 0.00 | 0.00 | 83 | |
| 20260510184532 | 52 | 35 | 13.0 | 21.0 | 0.00 | 0.00 | 0.00 | 83 | |
| 20260510183517 | 53 | 10 | 17.0 | 25.0 | 0.00 | 0.00 | 0.00 | 82 | |
| 20260510182525 | 53 | 9 | 16.0 | 24.0 | 0.00 | 0.00 | 0.00 | 82 | |
| 20260510181529 | 53 | 19 | 15.0 | 23.0 | 0.00 | 0.00 | 0.00 | 82 | |
| 20260510180542 | 53 | 5 | 16.0 | 25.0 | 0.00 | 0.00 | 0.00 | 81 | |
| 20260510175519 | 53 | 360 | 18.0 | 25.0 | 0.00 | 0.00 | 0.00 | 81 | |
| 20260510174532 | 54 | 40 | 13.0 | 21.0 | 0.00 | 0.00 | 0.00 | 81 | |
| 20260510173517 | 54 | 5 | 16.0 | 23.0 | 0.00 | 0.00 | 0.00 | 81 | |
| 20260510172522 | 54 | 15 | 14.0 | 24.0 | 0.00 | 0.00 | 0.00 | 81 | |
| 20260510171531 | 54 | 5 | 15.0 | 25.0 | 0.00 | 0.00 | 0.00 | 81 | |
| 20260510170544 | 54 | 16 | 17.0 | 26.0 | 0.00 | 0.00 | 0.00 | 81 | |
| 20260510165528 | 55 | 5 | 16.0 | 24.0 | 0.00 | 0.00 | 0.00 | 80 | |
| 20260510164533 | 55 | 14 | 19.0 | 27.0 | 0.00 | 0.00 | 0.00 | 80 | |
| 20260510163545 | 56 | 13 | 12.0 | 25.0 | 0.00 | 0.00 | 0.00 | 80 | |
| 20260510162538 | 56 | 29 | 16.0 | 27.0 | 0.00 | 0.00 | 0.00 | 78 | |
| 20260510161521 | 56 | 25 | 13.0 | 22.0 | 0.00 | 0.00 | 0.00 | 79 | |
| 20260510160529 | 57 | 17 | 14.0 | 23.0 | 0.00 | 0.00 | 0.00 | 78 | |
| 20260510155602 | 57 | 9 | 15.0 | 25.0 | 0.00 | 0.00 | 0.00 | 78 | |
| 20260510154525 | 57 | 27 | 18.0 | 25.0 | 0.00 | 0.00 | 0.00 | 78 | |
| 20260510153538 | 58 | 355 | 15.0 | 24.0 | 0.00 | 0.00 | 0.00 | 78 | |
| 20260510152550 | 58 | 15 | 16.0 | 23.0 | 0.00 | 0.00 | 0.00 | 78 | |
| 20260510151534 | 59 | 9 | 13.0 | 23.0 | 0.00 | 0.00 | 0.00 | 77 | |
| 20260510150543 | 59 | 25 | 15.0 | 24.0 | 0.00 | 0.00 | 0.00 | 77 | |
| 20260510145526 | 59 | 355 | 15.0 | 24.0 | 0.00 | 0.00 | 0.00 | 77 | |
| 20260510144519 | 59 | 347 | 17.0 | 25.0 | 0.00 | 0.00 | 0.00 | 77 | |
| 20260510143524 | 59 | 15 | 15.0 | 22.0 | 0.00 | 0.00 | 0.00 | 75 | |
| 20260510142538 | 60 | 26 | 13.0 | 24.0 | 0.00 | 0.00 | 0.00 | 76 | |
| 20260510141520 | 60 | 13 | 13.0 | 22.0 | 0.00 | 0.00 | 0.00 | 75 | |
| 20260510140533 | 61 | 19 | 14.0 | 22.0 | 0.00 | 0.00 | 0.00 | 74 | |
| 20260510135517 | 62 | 51 | 14.0 | 21.0 | 0.00 | 0.00 | 0.00 | 73 | |
| 20260510134526 | 62 | 36 | 15.0 | 25.0 | 0.00 | 0.00 | 0.00 | 71 | |
| 20260510133530 | 63 | 5 | 15.0 | 22.0 | 0.00 | 0.00 | 0.00 | 71 | |
| 20260510132524 | 63 | 26 | 12.0 | 23.0 | 0.00 | 0.00 | 0.00 | 67 | |
| 20260510131529 | 63 | 27 | 13.0 | 22.0 | 0.00 | 0.00 | 0.00 | 70 | |
| 20260510130522 | 63 | 38 | 12.0 | 25.0 | 0.00 | 0.00 | 0.00 | 69 | |
| 20260510125527 | 62 | 9 | 12.0 | 20.0 | 0.00 | 0.00 | 0.00 | 71 | |
| 20260510124540 | 62 | 31 | 13.0 | 23.0 | 0.00 | 0.00 | 0.00 | 70 | |
| 20260510123523 | 62 | 5 | 15.0 | 26.0 | 0.00 | 0.00 | 0.00 | 68 | |
| 20260510122533 | 62 | 30 | 14.0 | 23.0 | 0.00 | 0.00 | 0.00 | 68 | |
| 20260510121517 | 62 | 29 | 16.0 | 25.0 | 0.00 | 0.00 | 0.00 | 68 | |
| 20260510120521 | 62 | 40 | 15.0 | 24.0 | 0.00 | 0.00 | 0.00 | 69 | |
| 20260510115554 | 61 | 44 | 14.0 | 24.0 | 0.00 | 0.00 | 0.00 | 68 | |
| 20260510114525 | 62 | 27 | 15.0 | 28.0 | 0.00 | 0.00 | 0.00 | 66 | |
| 20260510113529 | 63 | 57 | 15.0 | 24.0 | 0.00 | 0.00 | 0.00 | 66 | |
| 20260510112542 | 62 | 5 | 16.0 | 23.0 | 0.00 | 0.00 | 0.00 | 66 | |
| 20260510111542 | 61 | 26 | 8.0 | 22.0 | 0.00 | 0.00 | 0.00 | 69 | |
| 20260510110534 | 62 | 22 | 15.0 | 24.0 | 0.00 | 0.00 | 0.00 | 69 | |
| 20260510105518 | 62 | 32 | 16.0 | 25.0 | 0.00 | 0.00 | 0.00 | 67 | |
| 20260510104530 | 61 | 13 | 13.0 | 24.0 | 0.00 | 0.00 | 0.00 | 69 | |
| 20260510103535 | 62 | 51 | 16.0 | 24.0 | 0.00 | 0.00 | 0.00 | 66 | |
| 20260510102527 | 62 | 49 | 12.0 | 24.0 | 0.00 | 0.00 | 0.00 | 65 | |
| 20260510101530 | 62 | 27 | 15.0 | 22.0 | 0.00 | 0.00 | 0.00 | 61 | |
| 20260510100539 | 61 | 15 | 17.0 | 26.0 | 0.00 | 0.00 | 0.00 | 57 | |
| 20260510095543 | 61 | 49 | 19.0 | 28.0 | 0.00 | 0.00 | 0.00 | 56 | |
| 20260510094536 | 61 | 48 | 17.0 | 25.0 | 0.00 | 0.00 | 0.00 | 57 | |
| 20260510093548 | 61 | 53 | 17.0 | 26.0 | 0.00 | 0.00 | 0.00 | 57 | |
| 20260510092531 | 60 | 50 | 16.0 | 26.0 | 0.00 | 0.00 | 0.00 | 57 | |
| 20260510091544 | 60 | 23 | 15.0 | 25.0 | 0.00 | 0.00 | 0.00 | 59 | |
| 20260510090527 | 60 | 34 | 15.0 | 26.0 | 0.00 | 0.00 | 0.00 | 59 | |
| 20260510085534 | 59 | 38 | 13.0 | 24.0 | 0.00 | 0.00 | 0.00 | 62 | |
| 20260510084519 | 59 | 28 | 17.0 | 24.0 | 0.00 | 0.00 | 0.00 | 64 | |
| 20260510083523 | 59 | 18 | 14.0 | 22.0 | 0.00 | 0.00 | 0.00 | 67 | |
| 20260510082536 | 59 | 22 | 16.0 | 22.0 | 0.00 | 0.00 | 0.00 | 66 | |
| 20260510081520 | 58 | 49 | 16.0 | 25.0 | 0.00 | 0.00 | 0.00 | 68 | |
| 20260510080532 | 58 | 37 | 15.0 | 24.0 | 0.00 | 0.00 | 0.00 | 68 | |
| 20260510075532 | 58 | 49 | 14.0 | 26.0 | 0.00 | 0.00 | 0.00 | 69 | |
| 20260510074545 | 58 | 31 | 15.0 | 25.0 | 0.00 | 0.00 | 0.00 | 70 | |
| 20260510073533 | 58 | 20 | 14.0 | 21.0 | 0.00 | 0.00 | 0.00 | 71 | |
| 20260510072536 | 57 | 25 | 14.0 | 25.0 | 0.00 | 0.00 | 0.00 | 72 | |
| 20260510071549 | 57 | 55 | 14.0 | 22.0 | 0.00 | 0.00 | 0.00 | 73 | |
| 20260510070531 | 57 | 54 | 11.0 | 19.0 | 0.00 | 0.00 | 0.00 | 74 | |
| 20260510065525 | 56 | 30 | 14.0 | 24.0 | 0.00 | 0.00 | 0.00 | 75 | |
| 20260510064528 | 56 | 48 | 12.0 | 19.0 | 0.00 | 0.00 | 0.00 | 76 | |
| 20260510063521 | 55 | 30 | 13.0 | 19.0 | 0.00 | 0.00 | 0.00 | 78 | |
| 20260510062520 | 55 | 9 | 10.0 | 21.0 | 0.00 | 0.00 | 0.00 | 80 | |
| 20260510061533 | 54 | 34 | 10.0 | 18.0 | 0.00 | 0.00 | 0.00 | 82 | |
| 20260510060516 | 53 | 34 | 10.0 | 20.0 | 0.00 | 0.00 | 0.00 | 85 | |
| 20260510055550 | 53 | 50 | 11.0 | 18.0 | 0.00 | 0.00 | 0.00 | 86 | |
| 20260510054544 | 52 | 46 | 9.0 | 16.0 | 0.00 | 0.00 | 0.00 | 87 | |
| 20260510053526 | 52 | 32 | 9.0 | 16.0 | 0.00 | 0.00 | 0.00 | 88 | |
| 20260510052538 | 51 | 39 | 10.0 | 18.0 | 0.00 | 0.00 | 0.00 | 89 | |
| 20260510051517 | 51 | 24 | 8.0 | 13.0 | 0.00 | 0.00 | 0.00 | 89 | |
| 20260510050530 | 50 | 12 | 7.0 | 11.0 | 0.00 | 0.00 | 0.00 | 89 | |
| 20260510045600 | 50 | 350 | 7.0 | 12.0 | 0.00 | 0.00 | 0.00 | 89 | |
| 20260510044522 | 50 | 29 | 6.0 | 9.0 | 0.00 | 0.00 | 0.00 | 88 | |
| 20260510043535 | 50 | 5 | 6.0 | 10.0 | 0.00 | 0.00 | 0.00 | 88 | |
| 20260510042539 | 50 | 25 | 6.0 | 10.0 | 0.00 | 0.00 | 0.00 | 88 | |
| 20260510041527 | 50 | 24 | 7.0 | 11.0 | 0.00 | 0.00 | 0.00 | 88 | |
| 20260510040530 | 50 | 30 | 8.0 | 13.0 | 0.00 | 0.00 | 0.00 | 88 | |
| 20260510035524 | 50 | 18 | 8.0 | 12.0 | 0.00 | 0.00 | 0.00 | 88 | |
| 20260510034527 | 50 | 37 | 7.0 | 12.0 | 0.00 | 0.00 | 0.00 | 88 | |
| 20260510033541 | 50 | 19 | 6.0 | 11.0 | 0.00 | 0.00 | 0.00 | 88 | |
| 20260510032525 | 50 | 38 | 6.0 | 10.0 | 0.00 | 0.00 | 0.00 | 88 | |
| 20260510031539 | 51 | 22 | 7.0 | 10.0 | 0.00 | 0.00 | 0.00 | 87 | |
| 20260510030521 | 51 | 21 | 6.0 | 11.0 | 0.00 | 0.00 | 0.00 | 87 | |
| 20260510025551 | 51 | 22 | 7.0 | 12.0 | 0.00 | 0.00 | 0.00 | 88 | |
| 20260510024544 | 51 | 31 | 7.0 | 12.0 | 0.00 | 0.00 | 0.00 | 88 | |
| 20260510023528 | 51 | 36 | 7.0 | 9.0 | 0.00 | 0.00 | 0.00 | 88 | |
| 20260510022540 | 51 | 28 | 5.0 | 8.0 | 0.00 | 0.00 | 0.00 | 88 | |
| 20260510021524 | 51 | 34 | 6.0 | 9.0 | 0.00 | 0.00 | 0.00 | 88 | |
| 20260510020528 | 51 | 19 | 6.0 | 10.0 | 0.00 | 0.00 | 0.00 | 88 | |
| 20260510015521 | 51 | 18 | 6.0 | 9.0 | 0.00 | 0.00 | 0.00 | 87 | |
| 20260510014521 | 51 | 17 | 5.0 | 8.0 | 0.00 | 0.00 | 0.00 | 87 | |
| 20260510013555 | 50 | 18 | 5.0 | 8.0 | 0.00 | 0.00 | 0.00 | 87 | |
| 20260510012518 | 50 | 20 | 6.0 | 9.0 | 0.00 | 0.00 | 0.00 | 86 | |
| 20260510011531 | 50 | 15 | 6.0 | 9.0 | 0.00 | 0.00 | 0.00 | 86 | |
| 20260510010546 | 51 | 17 | 6.0 | 9.0 | 0.00 | 0.00 | 0.00 | 85 | |
| 20260510005549 | 51 | 16 | 6.0 | 9.0 | 0.00 | 0.00 | 0.00 | 85 | |
| 20260510004541 | 51 | 29 | 6.0 | 10.0 | 0.00 | 0.00 | 0.00 | 84 | |
| 20260510003521 | 52 | 23 | 5.0 | 8.0 | 0.00 | 0.00 | 0.00 | 84 | |
| 20260510002534 | 52 | 26 | 4.0 | 8.0 | 0.00 | 0.00 | 0.00 | 83 | |
| 20260510001518 | 52 | 19 | 4.0 | 9.0 | 0.00 | 0.00 | 0.00 | 83 | |
| 20260510000530 | 52 | 28 | 6.0 | 10.0 | 0.00 | 0.00 | 0.00 | 83 | |
| 20260509235534 | 52 | 32 | 8.0 | 11.0 | 0.00 | 0.00 | 0.00 | 82 | |
| 20260509234527 | 52 | 34 | 6.0 | 9.0 | 0.00 | 0.00 | 0.00 | 82 | |
| 20260509233531 | 53 | 24 | 7.0 | 11.0 | 0.00 | 0.00 | 0.00 | 81 | |
| 20260509232525 | 53 | 24 | 8.0 | 11.0 | 0.00 | 0.00 | 0.00 | 80 | |
| 20260509231524 | 53 | 24 | 8.0 | 12.0 | 0.00 | 0.00 | 0.00 | 80 | |
| 20260509230537 | 53 | 34 | 8.0 | 12.0 | 0.00 | 0.00 | 0.00 | 80 | |
| 20260509225520 | 53 | 28 | 8.0 | 13.0 | 0.00 | 0.00 | 0.00 | 79 | |
| 20260509224524 | 53 | 32 | 8.0 | 12.0 | 0.00 | 0.00 | 0.00 | 79 | |
| 20260509223518 | 53 | 28 | 8.0 | 13.0 | 0.00 | 0.00 | 0.00 | 79 | |
| 20260509222522 | 53 | 30 | 7.0 | 13.0 | 0.00 | 0.00 | 0.00 | 79 | |
| 20260509221556 | 53 | 360 | 8.0 | 11.0 | 0.00 | 0.00 | 0.00 | 78 | |
| 20260509220541 | 53 | 13 | 7.0 | 12.0 | 0.00 | 0.00 | 0.00 | 78 | |
| 20260509215522 | 53 | 360 | 7.0 | 11.0 | 0.00 | 0.00 | 0.00 | 78 | |
| 20260509214536 | 53 | 13 | 8.0 | 11.0 | 0.00 | 0.00 | 0.00 | 77 | |
| 20260509213521 | 53 | 15 | 6.0 | 11.0 | 0.00 | 0.00 | 0.00 | 77 | |
| 20260509212534 | 53 | 23 | 6.0 | 11.0 | 0.00 | 0.00 | 0.00 | 77 | |
| 20260509211518 | 53 | 28 | 7.0 | 10.0 | 0.00 | 0.00 | 0.00 | 77 | |
| 20260509210523 | 54 | 14 | 7.0 | 10.0 | 0.00 | 0.00 | 0.00 | 76 | |
| 20260509205536 | 54 | 11 | 7.0 | 9.0 | 0.00 | 0.00 | 0.00 | 75 | |
| 20260509204546 | 55 | 15 | 6.0 | 9.0 | 0.00 | 0.00 | 0.00 | 74 | |
| 20260509203551 | 55 | 22 | 8.0 | 10.0 | 0.00 | 0.00 | 0.00 | 73 | |
| 20260509202523 | 56 | 22 | 7.0 | 9.0 | 0.00 | 0.00 | 0.00 | 72 | |
| 20260509201526 | 56 | 30 | 5.0 | 8.0 | 0.00 | 0.00 | 0.00 | 71 |